| time (UTC) | temp C | wind direction | speed KPH | gust KPH | rain 1hr cm | rain 24hr cm | rain mn cm | humidity % | barometer mb |
| 20260904100027 | 26 | 93 | 1.6 | 8.0 | 0.00 | 0.00 | 0.00 | 81 | 990.8 |
| 20260904094526 | 26 | 166 | 0.0 | 6.4 | 0.00 | 0.00 | 0.00 | 81 | 990.7 |
| 20260904093023 | 26 | 186 | 0.0 | 9.7 | 0.00 | 0.00 | 0.00 | 81 | 990.7 |
| 20260904091527 | 26 | 108 | 1.6 | 6.4 | 0.00 | 0.00 | 0.00 | 81 | 990.7 |
| 20260904090025 | 26 | 194 | 3.2 | 9.7 | 0.00 | 0.00 | 0.00 | 80 | 990.7 |
| 20260904084521 | 26 | 180 | 1.6 | 8.0 | 0.00 | 0.00 | 0.00 | 80 | 990.7 |
| 20260904083022 | 26 | 170 | 1.6 | 4.8 | 0.00 | 0.00 | 0.00 | 80 | 990.6 |
| 20260904081519 | 26 | 104 | 0.0 | 6.4 | 0.00 | 0.00 | 0.00 | 79 | 990.6 |
| 20260904080020 | 26 | 169 | 1.6 | 8.0 | 0.00 | 0.00 | 0.00 | 79 | 990.5 |
| 20260904074519 | 26 | 221 | 3.2 | 9.7 | 0.00 | 0.00 | 0.00 | 78 | 990.5 |
| 20260904073016 | 27 | 115 | 1.6 | 11.3 | 0.00 | 0.00 | 0.00 | 77 | 990.6 |
| 20260904071528 | 27 | 82 | 3.2 | 8.0 | 0.00 | 0.00 | 0.00 | 77 | 990.7 |
| 20260904070013 | 27 | 112 | 1.6 | 6.4 | 0.00 | 0.00 | 0.00 | 76 | 990.8 |
| 20260904064509 | 27 | 173 | 1.6 | 6.4 | 0.00 | 0.00 | 0.00 | 76 | 991.0 |
| 20260904063009 | 27 | 174 | 1.6 | 9.7 | 0.00 | 0.00 | 0.00 | 75 | 990.9 |
| 20260904061507 | 27 | 232 | 1.6 | 11.3 | 0.00 | 0.00 | 0.00 | 74 | 991.0 |
| 20260904060004 | 27 | 105 | 3.2 | 9.7 | 0.00 | 0.00 | 0.00 | 72 | 991.0 |
| 20260904054503 | 27 | 97 | 3.2 | 11.3 | 0.00 | 0.00 | 0.00 | 71 | 991.1 |
| 20260904053100 | 27 | 114 | 1.6 | 6.4 | 0.00 | 0.00 | 0.00 | 70 | 990.9 |
| 20260904051559 | 27 | 40 | 1.6 | 8.0 | 0.00 | 0.00 | 0.00 | 69 | 990.8 |
| 20260904050056 | 27 | 125 | 3.2 | 6.4 | 0.00 | 0.00 | 0.00 | 67 | 990.8 |
| 20260904044558 | 27 | 85 | 1.6 | 8.0 | 0.00 | 0.00 | 0.00 | 66 | 990.8 |
| 20260904043054 | 27 | 146 | 1.6 | 12.9 | 0.00 | 0.00 | 0.00 | 66 | 990.6 |
| 20260904041554 | 28 | 158 | 3.2 | 14.5 | 0.00 | 0.00 | 0.00 | 65 | 990.8 |
| 20260904040053 | 28 | 128 | 3.2 | 8.0 | 0.00 | 0.00 | 0.00 | 65 | 990.8 |
| 20260904034601 | 28 | 217 | 4.8 | 9.7 | 0.00 | 0.00 | 0.00 | 66 | 990.8 |
| 20260904033052 | 28 | 138 | 4.8 | 11.3 | 0.00 | 0.00 | 0.00 | 66 | 990.9 |
| 20260904031551 | 28 | 188 | 3.2 | 14.5 | 0.00 | 0.00 | 0.00 | 66 | 990.8 |
| 20260904030051 | 28 | 133 | 8.0 | 14.5 | 0.00 | 0.00 | 0.00 | 65 | 990.8 |
| 20260904024550 | 28 | 150 | 6.4 | 16.1 | 0.00 | 0.00 | 0.00 | 64 | 990.5 |
| 20260904023049 | 29 | 155 | 1.6 | 8.0 | 0.00 | 0.00 | 0.00 | 64 | 990.3 |
| 20260904021549 | 29 | 108 | 1.6 | 11.3 | 0.00 | 0.00 | 0.00 | 66 | 990.0 |
| 20260904020049 | 29 | 141 | 6.4 | 17.7 | 0.00 | 0.00 | 0.00 | 66 | 989.7 |
| 20260904014549 | 30 | 121 | 4.8 | 20.9 | 0.00 | 0.00 | 0.00 | 65 | 989.4 |
| 20260904013049 | 30 | 130 | 11.3 | 20.9 | 0.00 | 0.00 | 0.00 | 64 | 989.3 |
| 20260904011548 | 30 | 137 | 6.4 | 19.3 | 0.00 | 0.00 | 0.00 | 60 | 989.0 |
| 20260904010053 | 31 | 135 | 3.2 | 12.9 | 0.00 | 0.00 | 0.00 | 59 | 988.8 |
| 20260904004557 | 31 | 139 | 9.7 | 20.9 | 0.00 | 0.00 | 0.00 | 59 | 988.9 |
| 20260904003045 | 31 | 84 | 9.7 | 17.7 | 0.00 | 0.00 | 0.00 | 59 | 988.7 |
| 20260904001543 | 31 | 89 | 6.4 | 16.1 | 0.00 | 0.00 | 0.00 | 59 | 988.7 |
| 20260904000056 | 32 | 94 | 6.4 | 19.3 | 0.00 | 0.00 | 0.00 | 58 | 988.6 |
| 20260903234545 | 32 | 107 | 6.4 | 17.7 | 0.00 | 0.00 | 0.00 | 57 | 988.5 |
| 20260903233039 | 32 | 93 | 4.8 | 17.7 | 0.00 | 0.00 | 0.00 | 57 | 988.3 |
| 20260903231538 | 33 | 123 | 3.2 | 11.3 | 0.00 | 0.00 | 0.00 | 57 | 988.1 |
| 20260903230036 | 33 | 131 | 6.4 | 17.7 | 0.00 | 0.00 | 0.00 | 57 | 988.1 |
| 20260903224538 | 33 | 51 | 8.0 | 19.3 | 0.00 | 0.00 | 0.00 | 56 | 988.3 |
| 20260903223038 | 33 | 109 | 4.8 | 17.7 | 0.00 | 0.00 | 0.00 | 57 | 988.0 |
| 20260903221532 | 34 | 120 | 4.8 | 17.7 | 0.00 | 0.00 | 0.00 | 55 | 988.1 |
| 20260903220039 | 34 | 162 | 4.8 | 19.3 | 0.00 | 0.00 | 0.00 | 55 | 988.1 |
| 20260903214526 | 33 | 126 | 8.0 | 16.1 | 0.00 | 0.00 | 0.00 | 56 | 988.2 |
| 20260903213034 | 33 | 207 | 4.8 | 14.5 | 0.00 | 0.00 | 0.00 | 57 | 988.4 |
| 20260903211552 | 33 | 127 | 1.6 | 9.7 | 0.00 | 0.00 | 0.00 | 57 | 988.4 |
| 20260903210017 | 33 | 141 | 8.0 | 20.9 | 0.00 | 0.00 | 0.00 | 59 | 988.7 |
| 20260903204513 | 33 | 167 | 4.8 | 16.1 | 0.00 | 0.00 | 0.00 | 59 | 988.9 |
| 20260903203012 | 33 | 215 | 6.4 | 19.3 | 0.00 | 0.00 | 0.00 | 59 | 989.1 |
| 20260903201508 | 32 | 360 | 6.4 | 14.5 | 0.00 | 0.00 | 0.00 | 63 | 989.4 |
| 20260903200006 | 32 | 49 | 6.4 | 16.1 | 0.00 | 0.00 | 0.00 | 62 | 989.4 |
| 20260903194503 | 32 | 127 | 4.8 | 16.1 | 0.00 | 0.00 | 0.00 | 63 | 989.5 |
| 20260903193101 | 32 | 110 | 8.0 | 19.3 | 0.00 | 0.00 | 0.00 | 64 | 989.7 |
| 20260903191557 | 32 | 117 | 4.8 | 22.5 | 0.00 | 0.00 | 0.00 | 64 | 989.8 |
| 20260903190057 | 31 | 96 | 6.4 | 16.1 | 0.00 | 0.00 | 0.00 | 66 | 990.1 |
| 20260903184600 | 31 | 97 | 4.8 | 17.7 | 0.00 | 0.00 | 0.00 | 67 | 990.3 |
| 20260903183049 | 31 | 165 | 8.0 | 19.3 | 0.00 | 0.00 | 0.00 | 69 | 990.5 |
| 20260903181547 | 31 | 128 | 6.4 | 17.7 | 0.00 | 0.00 | 0.00 | 69 | 990.6 |
| 20260903180049 | 31 | 186 | 4.8 | 20.9 | 0.00 | 0.00 | 0.00 | 68 | 990.6 |
| 20260903174604 | 31 | 129 | 4.8 | 16.1 | 0.00 | 0.00 | 0.00 | 68 | 990.8 |
| 20260903173045 | 31 | 176 | 4.8 | 20.9 | 0.00 | 0.00 | 0.00 | 69 | 990.9 |
| 20260903171542 | 31 | 173 | 3.2 | 19.3 | 0.00 | 0.00 | 0.00 | 68 | 991.1 |
| 20260903170103 | 31 | 96 | 8.0 | 16.1 | 0.00 | 0.00 | 0.00 | 69 | 991.1 |
| 20260903164542 | 30 | 172 | 3.2 | 19.3 | 0.00 | 0.00 | 0.00 | 73 | 991.2 |
| 20260903163033 | 29 | 240 | 4.8 | 20.9 | 0.00 | 0.00 | 0.00 | 74 | 991.2 |
| 20260903161532 | 29 | 210 | 3.2 | 11.3 | 0.00 | 0.00 | 0.00 | 74 | 991.3 |
| 20260903160033 | 28 | 116 | 1.6 | 14.5 | 0.00 | 0.00 | 0.00 | 76 | 991.3 |
| 20260903154528 | 27 | 184 | 1.6 | 9.7 | 0.00 | 0.00 | 0.00 | 77 | 991.3 |
| 20260903153027 | 27 | 105 | 3.2 | 12.9 | 0.00 | 0.00 | 0.00 | 78 | 991.2 |
| 20260903151526 | 27 | 138 | 4.8 | 11.3 | 0.00 | 0.00 | 0.00 | 78 | 991.2 |
| 20260903150028 | 27 | 231 | 3.2 | 9.7 | 0.00 | 0.00 | 0.00 | 78 | 991.3 |
| 20260903144522 | 27 | 76 | 3.2 | 11.3 | 0.00 | 0.00 | 0.00 | 79 | 991.3 |
| 20260903143020 | 27 | 110 | 4.8 | 12.9 | 0.00 | 0.00 | 0.00 | 79 | 991.4 |
| 20260903141520 | 26 | 115 | 3.2 | 12.9 | 0.00 | 0.00 | 0.00 | 78 | 991.5 |
| 20260903140015 | 26 | 160 | 3.2 | 11.3 | 0.00 | 0.00 | 0.00 | 78 | 991.4 |
| 20260903134512 | 26 | 53 | 4.8 | 11.3 | 0.00 | 0.00 | 0.00 | 78 | 991.2 |
| 20260903133010 | 26 | 108 | 0.0 | 6.4 | 0.00 | 0.00 | 0.00 | 78 | 991.1 |
| 20260903131508 | 26 | 139 | 0.0 | 6.4 | 0.00 | 0.00 | 0.00 | 78 | 991.1 |
| 20260903130006 | 26 | 99 | 1.6 | 9.7 | 0.00 | 0.00 | 0.00 | 78 | 991.1 |
| 20260903124505 | 26 | 112 | 1.6 | 8.0 | 0.00 | 0.00 | 0.00 | 77 | 991.0 |
| 20260903123003 | 26 | 124 | 0.0 | 8.0 | 0.00 | 0.00 | 0.00 | 76 | 990.9 |
| 20260903121604 | 26 | 127 | 0.0 | 3.2 | 0.00 | 0.00 | 0.00 | 76 | 990.6 |
| 20260903121502 | 26 | 127 | 0.0 | 3.2 | 0.00 | 0.00 | 0.00 | 76 | 990.6 |
| 20260903120105 | 26 | 127 | 0.0 | 1.6 | 0.00 | 0.00 | 0.00 | 76 | 990.6 |
| 20260903114602 | 26 | 127 | 0.0 | 3.2 | 0.00 | 0.00 | 0.00 | 76 | 990.6 |
| 20260903113059 | 26 | 127 | 0.0 | 4.8 | 0.00 | 0.00 | 0.00 | 75 | 990.7 |
| 20260903111623 | 26 | 104 | 0.0 | 3.2 | 0.00 | 0.00 | 0.00 | 75 | 990.6 |
| 20260903110109 | 26 | 104 | 0.0 | 3.2 | 0.00 | 0.00 | 0.00 | 75 | 990.4 |
| 20260903104622 | 26 | 90 | 0.0 | 1.6 | 0.00 | 0.00 | 0.00 | 74 | 990.3 |
| 20260903103055 | 26 | 90 | 0.0 | 1.6 | 0.00 | 0.00 | 0.00 | 73 | 990.2 |
| 20260903101552 | 27 | 90 | 0.0 | 1.6 | 0.00 | 0.00 | 0.00 | 73 | 990.2 |